| time (UTC) | temp F | wind direction | speed knots | gust knots | rain 1hr in | rain 24hr in | rain mn in | humidity % | barometer mb |
| 20260504044602 | 45 | 0 | 0.0 | 0.9 | 0.00 | 0.00 | 0.00 | 81 | 1017.2 |
| 20260504043054 | 44 | 0 | 0.0 | 2.6 | 0.00 | 0.00 | 0.00 | 80 | 1017.2 |
| 20260504041553 | 42 | 0 | 0.0 | 0.0 | 0.00 | 0.00 | 0.00 | 78 | 1017.1 |
| 20260504040057 | 42 | 0 | 0.0 | 0.0 | 0.00 | 0.00 | 0.00 | 77 | 1016.8 |
| 20260504034615 | 42 | 0 | 0.0 | 0.0 | 0.00 | 0.00 | 0.00 | 77 | 1016.8 |
| 20260504033115 | 42 | 0 | 0.0 | 0.0 | 0.00 | 0.00 | 0.00 | 77 | 1016.8 |
| 20260504031604 | 43 | 0 | 0.0 | 0.0 | 0.00 | 0.00 | 0.00 | 75 | 1016.6 |
| 20260504030054 | 43 | 0 | 0.0 | 0.0 | 0.00 | 0.00 | 0.00 | 74 | 1016.6 |
| 20260504024601 | 43 | 0 | 0.0 | 0.0 | 0.00 | 0.00 | 0.00 | 73 | 1016.6 |
| 20260504023055 | 44 | 0 | 0.0 | 0.0 | 0.00 | 0.00 | 0.00 | 70 | 1016.5 |
| 20260504021554 | 45 | 0 | 0.0 | 0.0 | 0.00 | 0.00 | 0.00 | 69 | 1016.5 |
| 20260504020051 | 45 | 0 | 0.0 | 0.0 | 0.00 | 0.00 | 0.00 | 69 | 1016.6 |
| 20260504014603 | 45 | 0 | 0.0 | 0.0 | 0.00 | 0.00 | 0.00 | 70 | 1016.7 |
| 20260504013055 | 45 | 0 | 0.0 | 0.0 | 0.00 | 0.00 | 0.00 | 68 | 1016.3 |
| 20260504011558 | 45 | 0 | 0.0 | 0.0 | 0.00 | 0.00 | 0.00 | 67 | 1016.1 |
| 20260504010058 | 46 | 0 | 0.0 | 0.0 | 0.00 | 0.00 | 0.00 | 64 | 1016.0 |
| 20260504004553 | 47 | 0 | 0.0 | 0.0 | 0.00 | 0.00 | 0.00 | 63 | 1015.8 |
| 20260504003100 | 49 | 0 | 0.0 | 0.0 | 0.00 | 0.00 | 0.00 | 59 | 1015.8 |
| 20260504001601 | 51 | 0 | 0.0 | 0.0 | 0.00 | 0.00 | 0.00 | 55 | 1015.4 |
| 20260504000053 | 53 | 0 | 0.0 | 0.9 | 0.00 | 0.00 | 0.00 | 51 | 1015.3 |
| 20260503234554 | 55 | 0 | 0.0 | 3.5 | 0.00 | 0.00 | 0.00 | 45 | 1015.4 |
| 20260503233053 | 56 | 342 | 0.9 | 5.2 | 0.00 | 0.00 | 0.00 | 42 | 1015.3 |
| 20260503231551 | 57 | 287 | 1.7 | 5.2 | 0.00 | 0.00 | 0.00 | 41 | 1015.3 |
| 20260503230058 | 59 | 312 | 2.6 | 7.0 | 0.00 | 0.00 | 0.00 | 39 | 1015.2 |
| 20260503224551 | 59 | 335 | 4.3 | 10.4 | 0.00 | 0.00 | 0.00 | 38 | 1015.1 |
| 20260503223052 | 59 | 305 | 4.3 | 8.7 | 0.00 | 0.00 | 0.00 | 38 | 1015.1 |
| 20260503221559 | 59 | 21 | 7.0 | 12.2 | 0.00 | 0.00 | 0.00 | 37 | 1015.1 |
| 20260503220055 | 60 | 316 | 4.3 | 9.6 | 0.00 | 0.00 | 0.00 | 38 | 1015.1 |
| 20260503214549 | 59 | 301 | 7.0 | 12.2 | 0.00 | 0.00 | 0.00 | 37 | 1014.9 |
| 20260503213057 | 60 | 331 | 4.3 | 13.9 | 0.00 | 0.00 | 0.00 | 37 | 1014.8 |
| 20260503211554 | 60 | 4 | 6.1 | 13.9 | 0.00 | 0.00 | 0.00 | 37 | 1014.6 |
| 20260503204556 | 60 | 340 | 5.2 | 17.4 | 0.00 | 0.00 | 0.00 | 38 | 1014.7 |
| 20260503203056 | 60 | 310 | 4.3 | 12.2 | 0.00 | 0.00 | 0.00 | 37 | 1014.6 |
| 20260503201554 | 59 | 281 | 7.0 | 14.8 | 0.00 | 0.00 | 0.00 | 36 | 1014.5 |
| 20260503200057 | 59 | 308 | 5.2 | 13.9 | 0.00 | 0.00 | 0.00 | 37 | 1014.7 |
| 20260503194553 | 59 | 348 | 7.8 | 13.0 | 0.00 | 0.00 | 0.00 | 36 | 1014.7 |
| 20260503193054 | 59 | 321 | 7.0 | 13.9 | 0.00 | 0.00 | 0.00 | 36 | 1014.9 |
| 20260503191551 | 59 | 327 | 7.0 | 13.9 | 0.00 | 0.00 | 0.00 | 37 | 1014.8 |
| 20260503190055 | 59 | 335 | 7.0 | 13.0 | 0.00 | 0.00 | 0.00 | 37 | 1014.8 |
| 20260503184610 | 58 | 269 | 7.0 | 15.6 | 0.00 | 0.00 | 0.00 | 38 | 1014.9 |
| 20260503183106 | 58 | 346 | 9.6 | 16.5 | 0.00 | 0.00 | 0.00 | 37 | 1015.3 |
| 20260503181607 | 58 | 323 | 6.1 | 14.8 | 0.00 | 0.00 | 0.00 | 39 | 1015.5 |
| 20260503180056 | 57 | 333 | 8.7 | 20.0 | 0.00 | 0.00 | 0.00 | 38 | 1015.5 |
| 20260503174556 | 57 | 347 | 7.0 | 14.8 | 0.00 | 0.00 | 0.00 | 39 | 1015.5 |
| 20260503173058 | 56 | 297 | 6.1 | 14.8 | 0.00 | 0.00 | 0.00 | 41 | 1015.4 |
| 20260503171552 | 56 | 352 | 7.8 | 14.8 | 0.00 | 0.00 | 0.00 | 41 | 1015.4 |
| 20260503081622 | 46 | 355 | 3.5 | 7.0 | 0.00 | 0.00 | 0.00 | 70 | 1012.4 |